Regional Weather Roundup
Issued by NWS Sterling, VA

Home | Current Version | Previous Version | Text Only | Print | Product List | Glossary On
Versions: 1 2 3 4 5 6 7 8 9 10 11 12 13 14 15 16 17 18 19 20 21 22 23 24 25 26 27 28 29 30 31 32 33 34 35 36 37 38 39 40 41 42 43 44 45 46 47 48 49 50
376
ASUS41 KLWX 240110
RWRLWX

REGIONAL WEATHER ROUNDUP
NATIONAL WEATHER SERVICE BALTIMORE MD/WASHINGTON DC
900 PM EDT MON APR 23 2018

Note: "FAIR" indicates few or no clouds below 12,000 feet
with no significant weather and/or obstructions to visibility.
 TC=TEMPERATURE CELSIUS

 * =Non NWS site. Station does not report precipitation (e.g. rain,
    snow, etc.), thunder, or fog.

DCZ001-MDZ009-015-VAZ040>042-051-053>054-240200-
WASHINGTON METRO

CITY           SKY/WX    TMP DP  RH WIND       PRES   REMARKS
WASHINGTON NAT MOCLDY    59  30  33 SE10      30.38S
DULLES         CLOUDY    58  32  37 SE13G21   30.37R
QUANTICO       MOCLDY    59  39  47 SE9       30.38R
COLLEGE PARK*  FAIR      59  23  25 SE7       30.38S
LEESBURG*      FAIR      61  39  44 SE13      30.37R
MANASSAS*      FAIR      58  35  42 SE9       30.37R
GAITHERSBURG*  FAIR      58  29  33 SE15      30.38R

$$

MDZ006>007-011-014-240200-
BALTIMORE METRO

CITY           SKY/WX    TMP DP  RH WIND       PRES   REMARKS
BWI AIRPORT    MOCLDY    59  26  28 SE5       30.38R
MD SCIENCE CTR   N/A     61  28  28 MISG      30.40R
MARTIN STATE   CLEAR     61  36  39 S10       30.41
ANNAPOLIS      FAIR      59  37  44 S7        30.39S
FORT MEADE*    FAIR      55  25  30 SE5       30.41R

$$

MDZ012-015-019>023-240200-
MARYLAND EASTERN SHORE

CITY           SKY/WX    TMP DP  RH WIND       PRES   REMARKS
OCEAN CITY     FAIR      51  43  74 CALM      30.42F
SALISBURY      FAIR      50  34  54 E3        30.41S
BAY BRIDGE AP* FAIR      57  37  47 SE7       30.40R
CAMBRIDGE*     CLEAR     55  28  35 SE6       30.41R
EASTON*        MOCLDY    57  25  28 SE5       30.44R

$$

MDZ017>025-240200-
SOUTHERN MARYLAND

CITY           SKY/WX    TMP DP  RH WIND       PRES   REMARKS
PATUXENT RIVER MOCLDY    57  45  64 E10       30.38F
ST INIGOES     FAIR      56  43  61 E12       30.37S
LEONARDTOWN*   FAIR      54  37  54 E5        30.40S

$$

MDZ003>005-240200-
NORTH CENTRAL MARYLAND

CITY           SKY/WX    TMP DP  RH WIND       PRES   REMARKS
FREDERICK*     FAIR      61  36  39 SE9       30.38R
HAGERSTOWN APT FAIR      62  41  46 S15       30.33R
WESTMINSTER*   FAIR     N/A N/A N/A S7        30.37R

$$

MDZ501>502-240200-
WESTERN MARYLAND

CITY           SKY/WX    TMP DP  RH WIND       PRES   REMARKS
OAKLAND*       FAIR      52  37  58 SE12G20   30.27R
CUMBERLAND*    FAIR      63  43  48 SE10G18   30.32R

$$

VAZ025>031-240200-
SHENANDOAH VALLEY

CITY           SKY/WX    TMP DP  RH WIND       PRES   REMARKS
WINCHESTER*    FAIR      55  41  58 SE10      30.35R
FRONT ROYAL*   FAIR      59  41  51 SE8       30.32R
LURAY*         FAIR      61  41  48 SE12G20   30.31R
NEW MARKET*    FAIR      60  42  51 SE10      30.29R
STAUNTON*      CLOUDY    59  42  54 SE13G18   30.32R
WAYNESBORO*    CLOUDY    58  44  59 E12G20    30.29S

$$

WVZ021-048>050-054>055-240200-
EASTERN WEST VIRGINIA PANHANDLE

CITY           SKY/WX    TMP DP  RH WIND       PRES   REMARKS
MARTINSBURG    FAIR      59  42  53 SE8       30.33R
PETERSBURG*    MOCLDY    61  42  50 SE13      30.27R

$$

VAZ036>039-050-240200-
CENTRAL FOOTHILLS

CITY           SKY/WX    TMP DP  RH WIND       PRES   REMARKS
CHARLOTTESVILL CLOUDY    62  39  42 SE12      30.32R
CULPEPER*      FAIR      60  31  33 SE8       30.36R
ORANGE*        FAIR      59  36  41 CALM      30.34R
GORDONSVILLE*  FAIR      59  36  41 E7        30.33R
WARRENTON*     FAIR      57  35  42 E5        30.35R

$$

VAZ055>057-240200-
NORTH AND CENTRAL PIEDMONT

CITY           SKY/WX    TMP DP  RH WIND       PRES   REMARKS
FREDERICKSBRG* FAIR      59  32  36 E7        30.35S
STAFFORD*      FAIR      58  34  41 E7        30.39S

$$

NCZ024-NYZ072-PAZ021-071-VAZ022-071-240200-
OTHER REGIONAL OBSERVATIONS

CITY           SKY/WX    TMP DP  RH WIND       PRES   REMARKS
NEW YORK CITY  FAIR      52  37  56 S5        30.46R
PHILADELPHIA   FAIR      56  24  29 S14       30.44R
PITTSBURGH     CLOUDY    65  36  34 SE13      30.21R
ROANOKE        LGT RAIN  55  51  86 E3        30.26S
RICHMOND       CLOUDY    58  40  51 E10       30.34R
RALEIGH        LGT RAIN  59  53  80 E9        30.22R

$$

ANZ530>537-240200-
MARINE OBSERVATIONS

STATION/POSITION TIME  TEMP    WIND        PRES
                       AIR SEA DIR/SP/G
                 (UTC) (F)     (DEG/KT/KT) (MB)
THOMAS PT LIGHT  0100   56 53  160/ 10/ 10 1030.1R
BALT KEY BRIDGE  0048   59     160/ 11/ 13 1029.1R
COVE POINT       0048   56     160/ 12/ 15 1029.6F
LEWISETTA        0048   56 57  120/ 13/ 15 1028.4F
SOLOMONS ISLAND  0048   56 54  110/ 12/ 15 1028.5F
PINEY POINT      0048          140/ 11/ 12   N/A

$$





USA.gov is the U.S. government's official web portal to all federal, state and local government web resources and services.